Starlink 32671

operational
NORAD ID: 62209 Int'l Des: 2024-229 Owner: SPXS Country: US Constellation: starlink
LEOCIRCULAR

Über Starlink 32671

Beschreibung wird geladen...

Live-Position

3D-Globus wird geladen...

Nächste Überflüge

Höhenverlauf

Altitude vs Time

uPlot chart will show altitude changes over time

Zweizeiliger Elementsatz

1 62209U 24229T 25303.22612734 .00031201 00000-0 11383-2 0 9993
2 62209 43.0022 287.9345 0001368 255.5600 104.5100 15.27587406 50608
Epoch: 30. Okt. 2025 • Age: 20 hours

Aktueller Status

Höhe 494.2 km
Geschwindigkeit 7.62 km/s
Subsatellitenpunkt -40.23°S, 156.39°E
Startdatum 4. Dez. 2024
Alter 0.9 years
Typ internet

Technische Details

Klassifizierung Payload
Masse 730.00 kg
Trockenmasse 700.00 kg
Gesamtmasse 730.00 kg
Länge 0.30 m
Durchmesser 4.10 m
Spannweite 29.00 m
Form Box + pan
Hersteller SPXS
Bus-Typ Starlink V2M
Phasenstatus In Orbit
Besitzer/Staat SPXS/US

Große Konstellationen

Loading constellations...